FENGYUN 1C DEB, 37003

Orbit data source: Space-Track

FENGYUN 1C DEB, 37003 is space debris in SSO originally from a launch on Mon, 10 May 1999 UTC launched from the Taiyaun Space Center, China (TSC). Fengyun 1C debris stems from the Chinese weather satellite Fengyun-1C, which was intentionally destroyed by a Chinese anti-satellite missile in 2007. This event dramatically increased the amount of space debris, with thousands of trackable fragments posing hazards to satellites and human spaceflight. The Fengyun 1C debris cloud has become a focal point in discussions about space sustainability and the need for international regulations to prevent the creation of new debris.

Loading next visibility...
Identifier
37003, 1999-025ECK
Orbit
SSO
Country
Flag of CNCN / PRC
Related business
Manufacturer
Unknown
Mission
Spacecraft
Bus & Motor
Unknown
Mass
Unknown
Launch date (UTC)
1999-05-10 (27 years ago)
Launch vehicle
Unknown
Launch site
Taiyaun Space Center, China (TSC)
Object type
Payload
Rocket body
Debris
Shape & HBR
Unknown shape, 0.1 m
Radar Cross Section
Small (<0.1 m²)

Expand to show TLE details & history
Last TLE update: 3 weeks ago

TLE from 3 weeks ago
0 FENGYUN 1C DEB
1 37003U 99025ECK 26044.30044421  .00001115  00000-0  80820-3 0  9991
2 37003  98.8418  70.4772 0095340 350.5762  70.4312 13.96359490615300
Epoch: 2026-02-13T07:12Z
TLE epoch observation values (Epoch: 2026-02-13T07:12:38.379Z)
Latitude
60.87875°
Longitude
162.85049°
Altitude
894.099 km
Speed
7.422 km/s
True Right ascension
03h 37m 24s
True Declination
60° 44' 06"
Sunlit
Object was in daylight at epoch
Visualization orbit readout
Latitude
Unknown
Longitude
Unknown
Altitude
Unknown
Speed
Unknown
Apparent Right ascension
Unknown
Apparent Declination
Unknown
Sunlit
N/A
Visualization observer readout
Local Sidereal Time
14:13:49
Azimuth
Unknown
Elevation
Unknown
Doppler factor
Unknown
Orbital elements
Apogee altitude
973.05 km
Perigee altitude
834.201 km
Semi-major axis
7,281.762 km
Eccentricity
0.00953
Inclination
98.8418°
RAAN
70.4772°
Arg. of periapsis
350.5762°
True anomaly
71.46468°
Mean anomaly
70.4312°
Eccentric anomaly
70.94753°
Mean motion
3.49292 °/min
Orbital period
103.07 mins
BSTAR
0.0008082
Loading maneuver chart data...
Computing Atmospheric mass density...
Loading historical data...
Loading historical data...
Loading historical data...
Loading historical data...
Loading historical data...
Loading historical data...
Loading historical data...

Documentation

Showing up to 5 results
|